Hourly Data Report for June 10, 2020

BORDEN AWOS
ONTARIO
Current Station Operator: DND

44°16'20.000" N
79°54'42.000" W
222.50 m
611B002
71534
YBN

Download Data

Hourly Data (June 2020)
Hourly Data Report for June 10, 2020
TIME
LST
Temp Definition
°C
Dew Point Definition
°C
Rel Hum Definition
%
Precip. Amount Definition
mm

Wind Dir Definition
10's deg

Wind Spd Definition
km/h
Visibility Definition
km
Stn Press Definition
kPa
Hmdx Definition


Wind Chill Definition


Weather Definition


00:00 21.8 13.2 58   15 22 14.5 98.27 25   LegendNANA
01:00 20.0 12.1 60   15 19 14.5 98.24     LegendNANA
02:00 19.4 12.8 66   14 9 14.5 98.16     LegendNANA
03:00 19.4 13.3 68   16 7 14.5 98.12     LegendNANA
04:00 17.7 14.6 82   19 7 6.4 98.16     Moderate Rain
05:00 17.0 15.5 91   16 28 4.8 98.13     Moderate Rain
06:00 17.7 17.3 98   15 17 14.5 98.01     LegendNANA
07:00 19.1 18.5 96   15 15 14.5 97.98     LegendNANA
08:00 21.6 19.6 88   17 28 14.5 97.94 29   LegendNANA
09:00 23.7 20.0 80   16 30 14.5 97.89 31   LegendNANA
10:00 25.7 21.3 77   18 26 14.5 97.82 34   LegendNANA
11:00 27.1 22.1 74   18 26 14.5 97.81 37   LegendNANA
12:00 28.0 22.6 73   18 24 14.5 97.78 38   LegendNANA
13:00 29.9 22.8 66   18 33 14.5 97.74 40   LegendNANA
14:00 30.0 22.3 63   19 30 14.5 97.73 40   LegendNANA
15:00 30.5 21.4 58   18 33 14.5 97.65 39   LegendNANA
16:00 31.4 20.7 53   19 31 14.5 97.58 40   LegendNANA
17:00 30.1 20.6 57   19 35 14.5 97.58 38   LegendNANA
18:00 29.7 20.7 59   21 24 14.5 97.66 38   LegendNANA
19:00 19.9 17.5 86   34 7 14.5 97.78     Rain
20:00 19.7 18.2 91     0 12.9 97.75     Rain
21:00
22:00 18.7 18.1 96   12 9 4.0 97.69     Heavy Rain
23:00   17.9 95   15 19 14.5 97.59     Rain

Notes on Data Quality.

Legend

  • E = Estimated
  • M = Missing
  • NA = Not Available*
  • [empty] = Indicates an unobserved value
Date modified: